Flag for Germany Weather past 2 weeks in Tönisvorst, North Rhine-Westphalia, Germany

Now
63 °F

Clear.


Feels Like: 63 °F
Forecast: 52 / 65 °F
Wind: 3 mph from North

Location: Monchengladbach Airport

Current Time: May 27, 2015 at 3:08:41 PM

Latest Report: May 27, 2015 at 2:20 PM


Visibility: 10 mi

Pressure: 30.21 "Hg

Humidity: 45%

Dew point: 41 °F

Location of TönisvorstLocation

Historic Weather in Tönisvorst — Graph

°F

Tönisvorst temperature yesterday

Maximum temperature yesterday: 61 °F (at 3:20 PM)
Minimum temperature yesterday: 50 °F (at 7:50 AM)
Average temperature yesterday: 56 °F

Past Weeks' High & Low Weather Summary

 TemperatureHumidityPressure
High72 °F (May 12, 1:20 PM)100% (May 16, 2:50 PM)30.33 "Hg (May 16, 2:50 PM)
Low41 °F (May 21, 6:20 AM)35% (May 12, 5:50 PM)29.65 "Hg (May 18, 6:20 PM)
Average59 °F58%30.07 "Hg
* Reported May 12 1:20 PM — May 27 1:50 PM, Tönisvorst, Weather by CustomWeather, © 2015

Note: Actual official high and low records may vary slightly from our data, if they occured in-between our weather recording intervals... More about our weather records

Advertising

Tönisvorst weather history for previous 24 hours

 ConditionsComfort  
Time TempWeatherWind HumidityBarometerVisibility
1:50 PM
Wed, May 27
61 °FClear.3 mph45%30.24 "Hg10 mi
1:20 PM61 °FSunny.3 mph42%30.24 "Hg10 mi
12:50 PM63 °FSunny.3 mph45%30.24 "Hg10 mi
12:20 PM59 °FSunny.5 mph48%30.24 "Hg10 mi
11:50 AM59 °FSunny.6 mph48%30.27 "Hg10 mi
11:20 AM57 °FSunny.6 mph51%30.27 "Hg10 mi
10:50 AM59 °FScattered clouds.3 mph48%30.27 "HgN/A
10:20 AM55 °FScattered clouds.5 mph51%30.27 "HgN/A
9:50 AM57 °FSunny.5 mph48%30.27 "Hg10 mi
9:20 AM55 °FSunny.7 mph44%30.27 "Hg10 mi
8:50 AM55 °FPassing clouds.6 mph59%30.27 "HgN/A
8:20 AM54 °FPassing clouds.5 mph63%30.27 "HgN/A
7:50 AM54 °FSunny.3 mph67%30.24 "Hg10 mi
8:20 PM
Tue, May 26
55 °FClear.8 mph55%30.21 "Hg10 mi
7:50 PM57 °FPassing clouds.9 mph51%30.18 "HgN/A
7:20 PM57 °FPassing clouds.13 mph51%30.18 "HgN/A
6:50 PM59 °FPassing clouds.13 mph45%30.18 "HgN/A
6:20 PM59 °FClear.15 mph45%30.15 "Hg10 mi
5:50 PM59 °FPassing clouds.13 mph48%30.15 "HgN/A
5:20 PM61 °FPassing clouds.12 mph48%30.15 "HgN/A
4:50 PM59 °FPassing clouds.15 mph48%30.15 "HgN/A
4:20 PM59 °FPassing clouds.14 mph55%30.15 "HgN/A
3:50 PM59 °FPassing clouds.14 mph51%30.15 "HgN/A
3:20 PM61 °FPassing clouds.10 mph48%30.12 "HgN/A
Weather by CustomWeather, © 2015

See weather overviewHow to use our weather pages